| time (UTC) | temp C | wind direction | speed KPH | gust KPH | rain 1hr cm | rain 24hr cm | rain mn cm | humidity % | barometer mb |
| 20260508133052 | 15 | 202 | 6.4 | 12.9 | 0.00 | 0.00 | 0.00 | 75 | 1013.7 |
| 20260508132550 | 15 | 198 | 4.8 | 12.9 | 0.00 | 0.00 | 0.00 | 75 | 1013.9 |
| 20260508132050 | 15 | 179 | 6.4 | 12.9 | 0.00 | 0.00 | 0.00 | 75 | 1013.9 |
| 20260508131603 | 15 | 175 | 4.8 | 16.1 | 0.00 | 0.00 | 0.00 | 75 | 1013.9 |
| 20260508131049 | 15 | 202 | 6.4 | 16.1 | 0.00 | 0.00 | 0.00 | 75 | 1013.9 |
| 20260508130048 | 15 | 191 | 4.8 | 8.0 | 0.00 | 0.00 | 0.00 | 74 | 1013.8 |
| 20260508125550 | 15 | 177 | 3.2 | 8.0 | 0.00 | 0.00 | 0.00 | 74 | 1013.9 |
| 20260508125047 | 15 | 185 | 3.2 | 8.0 | 0.00 | 0.00 | 0.00 | 74 | 1013.8 |
| 20260508124548 | 15 | 182 | 4.8 | 8.0 | 0.00 | 0.00 | 0.00 | 73 | 1013.7 |
| 20260508124047 | 15 | 206 | 3.2 | 8.0 | 0.00 | 0.00 | 0.00 | 73 | 1013.8 |
| 20260508123547 | 15 | 202 | 3.2 | 8.0 | 0.00 | 0.00 | 0.00 | 73 | 1013.7 |
| 20260508123105 | 15 | 170 | 1.6 | 8.0 | 0.00 | 0.00 | 0.00 | 73 | 1013.7 |
| 20260508122549 | 15 | 163 | 1.6 | 8.0 | 0.00 | 0.00 | 0.00 | 73 | 1013.7 |
| 20260508122047 | 15 | 191 | 3.2 | 8.0 | 0.00 | 0.00 | 0.00 | 72 | 1013.7 |
| 20260508121545 | 15 | 154 | 3.2 | 6.4 | 0.00 | 0.00 | 0.00 | 72 | 1013.7 |
| 20260508121044 | 15 | 140 | 1.6 | 6.4 | 0.00 | 0.00 | 0.00 | 71 | 1013.8 |
| 20260508120059 | 15 | 144 | 1.6 | 4.8 | 0.00 | 0.00 | 0.00 | 71 | 1013.8 |
| 20260508115544 | 15 | 157 | 1.6 | 4.8 | 0.00 | 0.00 | 0.00 | 71 | 1013.9 |
| 20260508115042 | 15 | 166 | 1.6 | 6.4 | 0.00 | 0.00 | 0.00 | 71 | 1013.9 |
| 20260508114554 | 15 | 163 | 3.2 | 6.4 | 0.00 | 0.00 | 0.00 | 70 | 1013.7 |
| 20260508114043 | 15 | 143 | 1.6 | 4.8 | 0.00 | 0.00 | 0.00 | 70 | 1013.9 |
| 20260508113543 | 15 | 160 | 1.6 | 4.8 | 0.00 | 0.00 | 0.00 | 70 | 1014.1 |
| 20260508113043 | 15 | 144 | 3.2 | 6.4 | 0.00 | 0.00 | 0.00 | 69 | 1014.1 |
| 20260508112541 | 15 | 117 | 1.6 | 6.4 | 0.00 | 0.00 | 0.00 | 69 | 1013.9 |
| 20260508112041 | 15 | 190 | 1.6 | 4.8 | 0.00 | 0.00 | 0.00 | 69 | 1014.0 |
| 20260508111545 | 15 | 190 | 1.6 | 6.4 | 0.00 | 0.00 | 0.00 | 68 | 1014.1 |
| 20260508111040 | 15 | 191 | 1.6 | 6.4 | 0.00 | 0.00 | 0.00 | 68 | 1014.1 |
| 20260508110040 | 15 | 175 | 3.2 | 11.3 | 0.00 | 0.00 | 0.00 | 67 | 1013.9 |
| 20260508105539 | 15 | 187 | 4.8 | 12.9 | 0.00 | 0.00 | 0.00 | 67 | 1014.0 |
| 20260508105039 | 15 | 204 | 6.4 | 12.9 | 0.00 | 0.00 | 0.00 | 67 | 1014.0 |
| 20260508104542 | 15 | 191 | 4.8 | 16.1 | 0.00 | 0.00 | 0.00 | 66 | 1014.0 |
| 20260508104037 | 15 | 220 | 4.8 | 16.1 | 0.00 | 0.00 | 0.00 | 66 | 1013.9 |
| 20260508103537 | 15 | 193 | 6.4 | 14.5 | 0.00 | 0.00 | 0.00 | 65 | 1013.8 |
| 20260508103051 | 15 | 211 | 8.0 | 14.5 | 0.00 | 0.00 | 0.00 | 65 | 1013.8 |
| 20260508102534 | 15 | 185 | 8.0 | 14.5 | 0.00 | 0.00 | 0.00 | 65 | 1013.9 |
| 20260508102033 | 15 | 195 | 6.4 | 12.9 | 0.00 | 0.00 | 0.00 | 65 | 1013.8 |
| 20260508101533 | 15 | 189 | 6.4 | 12.9 | 0.00 | 0.00 | 0.00 | 65 | 1013.8 |
| 20260508101034 | 15 | 177 | 4.8 | 12.9 | 0.00 | 0.00 | 0.00 | 65 | 1013.6 |
| 20260508100033 | 15 | 194 | 4.8 | 12.9 | 0.00 | 0.00 | 0.00 | 65 | 1013.7 |
| 20260508095533 | 15 | 206 | 6.4 | 9.7 | 0.00 | 0.00 | 0.00 | 65 | 1013.6 |
| 20260508095033 | 15 | 204 | 4.8 | 9.7 | 0.00 | 0.00 | 0.00 | 65 | 1013.7 |
| 20260508094531 | 15 | 175 | 4.8 | 8.0 | 0.00 | 0.00 | 0.00 | 65 | 1013.7 |
| 20260508094032 | 15 | 193 | 3.2 | 6.4 | 0.00 | 0.00 | 0.00 | 65 | 1013.7 |
| 20260508093531 | 15 | 192 | 4.8 | 14.5 | 0.00 | 0.00 | 0.00 | 65 | 1013.7 |
| 20260508093038 | 15 | 196 | 6.4 | 14.5 | 0.00 | 0.00 | 0.00 | 65 | 1013.7 |
| 20260508092531 | 15 | 183 | 4.8 | 12.9 | 0.00 | 0.00 | 0.00 | 65 | 1013.8 |
| 20260508092030 | 15 | 208 | 6.4 | 12.9 | 0.00 | 0.00 | 0.00 | 65 | 1013.9 |
| 20260508091533 | 15 | 187 | 4.8 | 9.7 | 0.00 | 0.00 | 0.00 | 65 | 1014.0 |
| 20260508091028 | 15 | 196 | 4.8 | 8.0 | 0.00 | 0.00 | 0.00 | 66 | 1014.0 |
| 20260508090029 | 15 | 183 | 4.8 | 8.0 | 0.00 | 0.00 | 0.00 | 66 | 1014.0 |
| 20260508085531 | 14 | 183 | 4.8 | 9.7 | 0.00 | 0.00 | 0.00 | 66 | 1014.1 |
| 20260508085027 | 14 | 185 | 4.8 | 9.7 | 0.00 | 0.00 | 0.00 | 66 | 1014.1 |
| 20260508084528 | 14 | 191 | 4.8 | 8.0 | 0.00 | 0.00 | 0.00 | 66 | 1014.1 |
| 20260508084028 | 14 | 195 | 4.8 | 8.0 | 0.00 | 0.00 | 0.00 | 66 | 1014.2 |
| 20260508083527 | 14 | 195 | 3.2 | 9.7 | 0.00 | 0.00 | 0.00 | 66 | 1014.1 |
| 20260508083029 | 14 | 182 | 4.8 | 9.7 | 0.00 | 0.00 | 0.00 | 66 | 1014.1 |
| 20260508082526 | 14 | 173 | 4.8 | 11.3 | 0.00 | 0.00 | 0.00 | 66 | 1014.2 |
| 20260508082026 | 14 | 185 | 4.8 | 9.7 | 0.00 | 0.00 | 0.00 | 66 | 1014.2 |
| 20260508081526 | 14 | 208 | 6.4 | 9.7 | 0.00 | 0.00 | 0.00 | 66 | 1014.3 |
| 20260508081026 | 14 | 181 | 4.8 | 8.0 | 0.00 | 0.00 | 0.00 | 66 | 1014.3 |
| 20260508080029 | 14 | 183 | 3.2 | 8.0 | 0.00 | 0.00 | 0.00 | 66 | 1014.3 |
| 20260508075529 | 14 | 149 | 3.2 | 8.0 | 0.00 | 0.00 | 0.00 | 66 | 1014.4 |
| 20260508075031 | 14 | 164 | 3.2 | 9.7 | 0.00 | 0.00 | 0.00 | 66 | 1014.5 |
| 20260508074528 | 14 | 190 | 4.8 | 9.7 | 0.00 | 0.00 | 0.00 | 66 | 1014.5 |
| 20260508074026 | 14 | 183 | 4.8 | 12.9 | 0.00 | 0.00 | 0.00 | 66 | 1014.7 |
| 20260508073528 | 14 | 196 | 6.4 | 12.9 | 0.00 | 0.00 | 0.00 | 65 | 1014.7 |
| 20260508073032 | 14 | 185 | 4.8 | 9.7 | 0.00 | 0.00 | 0.00 | 65 | 1014.6 |
| 20260508072529 | 14 | 198 | 4.8 | 8.0 | 0.00 | 0.00 | 0.00 | 65 | 1014.8 |
| 20260508072026 | 14 | 198 | 4.8 | 8.0 | 0.00 | 0.00 | 0.00 | 65 | 1014.9 |
| 20260508071526 | 14 | 192 | 4.8 | 8.0 | 0.00 | 0.00 | 0.00 | 65 | 1015.0 |
| 20260508071025 | 14 | 179 | 4.8 | 9.7 | 0.00 | 0.00 | 0.00 | 65 | 1015.0 |
| 20260508070023 | 14 | 166 | 4.8 | 9.7 | 0.00 | 0.00 | 0.00 | 65 | 1015.1 |
| 20260508065521 | 14 | 165 | 3.2 | 8.0 | 0.00 | 0.00 | 0.00 | 65 | 1015.0 |
| 20260508065026 | 14 | 175 | 3.2 | 8.0 | 0.00 | 0.00 | 0.00 | 65 | 1015.0 |
| 20260508064526 | 14 | 179 | 3.2 | 6.4 | 0.00 | 0.00 | 0.00 | 65 | 1015.1 |
| 20260508064022 | 14 | 187 | 3.2 | 6.4 | 0.00 | 0.00 | 0.00 | 65 | 1015.2 |
| 20260508063521 | 14 | 163 | 3.2 | 6.4 | 0.00 | 0.00 | 0.00 | 65 | 1015.3 |
| 20260508063020 | 14 | 138 | 1.6 | 6.4 | 0.00 | 0.00 | 0.00 | 65 | 1015.2 |
| 20260508062523 | 14 | 117 | 3.2 | 6.4 | 0.00 | 0.00 | 0.00 | 65 | 1015.3 |
| 20260508062020 | 14 | 102 | 0.0 | 4.8 | 0.00 | 0.00 | 0.00 | 65 | 1015.3 |
| 20260508061520 | 14 | 102 | 3.2 | 4.8 | 0.00 | 0.00 | 0.00 | 65 | 1015.4 |
| 20260508061019 | 14 | 73 | 1.6 | 4.8 | 0.00 | 0.00 | 0.00 | 65 | 1015.2 |
| 20260508060020 | 14 | 70 | 1.6 | 4.8 | 0.00 | 0.00 | 0.00 | 65 | 1015.4 |
| 20260508055521 | 15 | 62 | 3.2 | 6.4 | 0.00 | 0.00 | 0.00 | 65 | 1015.4 |
| 20260508055019 | 15 | 60 | 1.6 | 6.4 | 0.00 | 0.00 | 0.00 | 65 | 1015.4 |
| 20260508054520 | 15 | 73 | 1.6 | 6.4 | 0.00 | 0.00 | 0.00 | 65 | 1015.4 |
| 20260508054019 | 15 | 75 | 1.6 | 4.8 | 0.00 | 0.00 | 0.00 | 65 | 1015.5 |
| 20260508053519 | 15 | 73 | 1.6 | 4.8 | 0.00 | 0.00 | 0.00 | 65 | 1015.6 |
| 20260508053019 | 15 | 160 | 1.6 | 4.8 | 0.00 | 0.00 | 0.00 | 65 | 1015.8 |
| 20260508052521 | 15 | 168 | 1.6 | 4.8 | 0.00 | 0.00 | 0.00 | 65 | 1015.8 |
| 20260508052019 | 15 | 171 | 0.0 | 6.4 | 0.00 | 0.00 | 0.00 | 65 | 1015.7 |
| 20260508051519 | 15 | 173 | 3.2 | 6.4 | 0.00 | 0.00 | 0.00 | 65 | 1015.7 |
| 20260508051018 | 15 | 168 | 4.8 | 8.0 | 0.00 | 0.00 | 0.00 | 64 | 1015.7 |
| 20260508050027 | 15 | 193 | 3.2 | 6.4 | 0.00 | 0.00 | 0.00 | 64 | 1015.5 |
| 20260508045518 | 15 | 195 | 1.6 | 8.0 | 0.00 | 0.00 | 0.00 | 63 | 1015.4 |
| 20260508045018 | 15 | 193 | 3.2 | 8.0 | 0.00 | 0.00 | 0.00 | 63 | 1015.6 |
| 20260508044518 | 15 | 185 | 4.8 | 8.0 | 0.00 | 0.00 | 0.00 | 63 | 1015.7 |
| 20260508044018 | 15 | 169 | 4.8 | 8.0 | 0.00 | 0.00 | 0.00 | 63 | 1015.6 |
| 20260508043517 | 15 | 143 | 3.2 | 8.0 | 0.00 | 0.00 | 0.00 | 62 | 1015.5 |
| 20260508043017 | 15 | 187 | 3.2 | 8.0 | 0.00 | 0.00 | 0.00 | 62 | 1015.5 |
| 20260508042518 | 15 | 122 | 3.2 | 9.7 | 0.00 | 0.00 | 0.00 | 62 | 1015.5 |
| 20260508042022 | 15 | 194 | 4.8 | 9.7 | 0.00 | 0.00 | 0.00 | 62 | 1015.4 |
| 20260508041517 | 15 | 173 | 4.8 | 11.3 | 0.00 | 0.00 | 0.00 | 63 | 1015.5 |
| 20260508041017 | 15 | 155 | 4.8 | 11.3 | 0.00 | 0.00 | 0.00 | 63 | 1015.4 |
| 20260508040019 | 15 | 167 | 4.8 | 11.3 | 0.00 | 0.00 | 0.00 | 63 | 1015.3 |
| 20260508035517 | 15 | 168 | 4.8 | 11.3 | 0.00 | 0.00 | 0.00 | 64 | 1015.3 |
| 20260508035017 | 15 | 164 | 4.8 | 9.7 | 0.00 | 0.00 | 0.00 | 64 | 1015.3 |
| 20260508034519 | 15 | 187 | 6.4 | 11.3 | 0.00 | 0.00 | 0.00 | 64 | 1015.2 |
| 20260508034017 | 15 | 166 | 4.8 | 12.9 | 0.00 | 0.00 | 0.00 | 64 | 1015.3 |
| 20260508033516 | 15 | 198 | 4.8 | 12.9 | 0.00 | 0.00 | 0.00 | 64 | 1015.4 |
| 20260508033016 | 15 | 99 | 4.8 | 9.7 | 0.00 | 0.00 | 0.00 | 63 | 1015.3 |
| 20260508032516 | 15 | 163 | 6.4 | 9.7 | 0.00 | 0.00 | 0.00 | 63 | 1015.3 |
| 20260508032016 | 15 | 146 | 4.8 | 9.7 | 0.00 | 0.00 | 0.00 | 63 | 1015.3 |
| 20260508031516 | 15 | 117 | 4.8 | 9.7 | 0.00 | 0.00 | 0.00 | 63 | 1015.3 |
| 20260508031015 | 15 | 165 | 4.8 | 9.7 | 0.00 | 0.00 | 0.00 | 62 | 1015.3 |
| 20260508030015 | 15 | 168 | 3.2 | 8.0 | 0.00 | 0.00 | 0.00 | 62 | 1015.3 |
| 20260508025514 | 15 | 181 | 3.2 | 6.4 | 0.00 | 0.00 | 0.00 | 62 | 1015.4 |
| 20260508025014 | 15 | 145 | 3.2 | 6.4 | 0.00 | 0.00 | 0.00 | 62 | 1015.4 |
| 20260508024515 | 15 | 146 | 3.2 | 9.7 | 0.00 | 0.00 | 0.00 | 62 | 1015.3 |
| 20260508024014 | 15 | 144 | 3.2 | 9.7 | 0.00 | 0.00 | 0.00 | 62 | 1015.3 |
| 20260508023514 | 15 | 156 | 4.8 | 12.9 | 0.00 | 0.00 | 0.00 | 62 | 1015.2 |
| 20260508023114 | 15 | 171 | 4.8 | 12.9 | 0.00 | 0.00 | 0.00 | 62 | 1015.2 |
| 20260508022513 | 15 | 178 | 3.2 | 9.7 | 0.00 | 0.00 | 0.00 | 62 | 1015.3 |
| 20260508022015 | 15 | 194 | 4.8 | 12.9 | 0.00 | 0.00 | 0.00 | 62 | 1015.2 |
| 20260508021514 | 15 | 195 | 4.8 | 12.9 | 0.00 | 0.00 | 0.00 | 62 | 1015.3 |
| 20260508021016 | 15 | 173 | 4.8 | 9.7 | 0.00 | 0.00 | 0.00 | 62 | 1015.3 |
| 20260508020022 | 15 | 162 | 6.4 | 9.7 | 0.00 | 0.00 | 0.00 | 62 | 1015.1 |
| 20260508015515 | 15 | 168 | 3.2 | 9.7 | 0.00 | 0.00 | 0.00 | 62 | 1015.1 |
| 20260508015015 | 15 | 108 | 4.8 | 12.9 | 0.00 | 0.00 | 0.00 | 62 | 1015.1 |
| 20260508014515 | 15 | 177 | 6.4 | 16.1 | 0.00 | 0.00 | 0.00 | 62 | 1015.1 |
| 20260508014017 | 15 | 179 | 8.0 | 16.1 | 0.00 | 0.00 | 0.00 | 61 | 1014.9 |
| 20260508013514 | 15 | 179 | 4.8 | 14.5 | 0.00 | 0.00 | 0.00 | 61 | 1015.0 |
| 20260508013014 | 15 | 171 | 4.8 | 14.5 | 0.00 | 0.00 | 0.00 | 61 | 1015.1 |
| 20260508012517 | 15 | 133 | 6.4 | 14.5 | 0.00 | 0.00 | 0.00 | 61 | 1015.2 |
| 20260508012014 | 15 | 154 | 9.7 | 14.5 | 0.00 | 0.00 | 0.00 | 60 | 1015.0 |
| 20260508011515 | 15 | 169 | 6.4 | 14.5 | 0.00 | 0.00 | 0.00 | 60 | 1014.9 |
| 20260508011013 | 15 | 144 | 8.0 | 16.1 | 0.00 | 0.00 | 0.00 | 60 | 1015.0 |
| 20260508010017 | 15 | 166 | 8.0 | 14.5 | 0.00 | 0.00 | 0.00 | 60 | 1014.9 |
| 20260508005515 | 15 | 135 | 6.4 | 14.5 | 0.00 | 0.00 | 0.00 | 60 | 1014.9 |
| 20260508005015 | 16 | 171 | 6.4 | 16.1 | 0.00 | 0.00 | 0.00 | 60 | 1014.9 |
| 20260508004514 | 16 | 158 | 8.0 | 16.1 | 0.00 | 0.00 | 0.00 | 59 | 1015.0 |
| 20260508004014 | 16 | 175 | 8.0 | 16.1 | 0.00 | 0.00 | 0.00 | 59 | 1015.0 |
| 20260508003514 | 16 | 133 | 6.4 | 17.7 | 0.00 | 0.00 | 0.00 | 58 | 1015.0 |
| 20260508003014 | 16 | 196 | 9.7 | 17.7 | 0.00 | 0.00 | 0.00 | 58 | 1014.9 |
| 20260508002513 | 16 | 196 | 8.0 | 17.7 | 0.00 | 0.00 | 0.00 | 57 | 1014.9 |
| 20260508002013 | 16 | 191 | 9.7 | 17.7 | 0.00 | 0.00 | 0.00 | 57 | 1015.0 |
| 20260508001533 | 16 | 200 | 4.8 | 16.1 | 0.00 | 0.00 | 0.00 | 57 | 1014.9 |
| 20260508001012 | 16 | 131 | 8.0 | 14.5 | 0.00 | 0.00 | 0.00 | 56 | 1014.9 |
| 20260508000009 | 16 | 175 | 8.0 | 16.1 | 0.00 | 0.00 | 0.00 | 56 | 1014.9 |
| 20260507235509 | 16 | 117 | 6.4 | 16.1 | 0.00 | 0.00 | 0.00 | 56 | 1014.9 |
| 20260507235009 | 16 | 184 | 6.4 | 14.5 | 0.00 | 0.00 | 0.00 | 56 | 1014.8 |
| 20260507234513 | 17 | 131 | 8.0 | 14.5 | 0.00 | 0.00 | 0.00 | 55 | 1014.8 |
| 20260507234052 | 17 | 139 | 6.4 | 17.7 | 0.00 | 0.00 | 0.00 | 55 | 1014.9 |
| 20260507233510 | 17 | 152 | 4.8 | 17.7 | 0.00 | 0.00 | 0.00 | 54 | 1014.7 |
| 20260507233015 | 17 | 146 | 9.7 | 16.1 | 0.00 | 0.00 | 0.00 | 53 | 1014.6 |
| 20260507232509 | 17 | 122 | 6.4 | 16.1 | 0.00 | 0.00 | 0.00 | 52 | 1014.8 |
| 20260507232008 | 17 | 189 | 6.4 | 16.1 | 0.00 | 0.00 | 0.00 | 51 | 1014.7 |
| 20260507231508 | 17 | 152 | 6.4 | 16.1 | 0.00 | 0.00 | 0.00 | 50 | 1014.7 |
| 20260507231008 | 17 | 117 | 4.8 | 17.7 | 0.00 | 0.00 | 0.00 | 49 | 1014.7 |
| 20260507230009 | 17 | 108 | 6.4 | 17.7 | 0.00 | 0.00 | 0.00 | 49 | 1014.8 |
| 20260507225510 | 18 | 110 | 6.4 | 14.5 | 0.00 | 0.00 | 0.00 | 48 | 1014.8 |
| 20260507225009 | 18 | 170 | 6.4 | 17.7 | 0.00 | 0.00 | 0.00 | 47 | 1014.7 |
| 20260507224508 | 18 | 110 | 8.0 | 17.7 | 0.00 | 0.00 | 0.00 | 46 | 1014.7 |
| 20260507224011 | 18 | 110 | 8.0 | 16.1 | 0.00 | 0.00 | 0.00 | 45 | 1014.8 |
| 20260507223510 | 18 | 56 | 8.0 | 14.5 | 0.00 | 0.00 | 0.00 | 44 | 1014.6 |
| 20260507223007 | 18 | 133 | 6.4 | 14.5 | 0.00 | 0.00 | 0.00 | 43 | 1014.8 |
| 20260507222506 | 18 | 135 | 8.0 | 14.5 | 0.00 | 0.00 | 0.00 | 42 | 1014.8 |
| 20260507222006 | 18 | 162 | 4.8 | 12.9 | 0.00 | 0.00 | 0.00 | 42 | 1014.8 |
| 20260507221506 | 18 | 186 | 4.8 | 16.1 | 0.00 | 0.00 | 0.00 | 42 | 1014.8 |
| 20260507221007 | 18 | 73 | 4.8 | 16.1 | 0.00 | 0.00 | 0.00 | 42 | 1014.9 |
| 20260507220012 | 18 | 181 | 6.4 | 16.1 | 0.00 | 0.00 | 0.00 | 42 | 1014.9 |
| 20260507215506 | 18 | 168 | 6.4 | 14.5 | 0.00 | 0.00 | 0.00 | 42 | 1014.9 |
| 20260507215007 | 18 | 104 | 4.8 | 14.5 | 0.00 | 0.00 | 0.00 | 42 | 1015.0 |
| 20260507214505 | 18 | 78 | 6.4 | 14.5 | 0.00 | 0.00 | 0.00 | 42 | 1015.1 |
| 20260507214005 | 18 | 65 | 6.4 | 17.7 | 0.00 | 0.00 | 0.00 | 42 | 1015.2 |
| 20260507213505 | 18 | 68 | 6.4 | 17.7 | 0.00 | 0.00 | 0.00 | 42 | 1015.3 |
| 20260507213006 | 18 | 110 | 6.4 | 14.5 | 0.00 | 0.00 | 0.00 | 42 | 1015.4 |
| 20260507212505 | 18 | 201 | 6.4 | 14.5 | 0.00 | 0.00 | 0.00 | 42 | 1015.5 |
| 20260507212004 | 18 | 157 | 4.8 | 14.5 | 0.00 | 0.00 | 0.00 | 42 | 1015.5 |
| 20260507211504 | 18 | 189 | 6.4 | 14.5 | 0.00 | 0.00 | 0.00 | 42 | 1015.5 |
| 20260507211004 | 18 | 193 | 6.4 | 14.5 | 0.00 | 0.00 | 0.00 | 42 | 1015.6 |
| 20260507210003 | 18 | 137 | 4.8 | 9.7 | 0.00 | 0.00 | 0.00 | 43 | 1015.7 |
| 20260507205504 | 18 | 141 | 4.8 | 16.1 | 0.00 | 0.00 | 0.00 | 43 | 1015.7 |
| 20260507205003 | 18 | 110 | 8.0 | 16.1 | 0.00 | 0.00 | 0.00 | 43 | 1015.8 |
| 20260507204502 | 18 | 159 | 8.0 | 14.5 | 0.00 | 0.00 | 0.00 | 43 | 1016.0 |
| 20260507204002 | 18 | 160 | 4.8 | 12.9 | 0.00 | 0.00 | 0.00 | 43 | 1016.1 |
| 20260507203502 | 18 | 164 | 6.4 | 12.9 | 0.00 | 0.00 | 0.00 | 43 | 1016.3 |
| 20260507203005 | 18 | 122 | 6.4 | 16.1 | 0.00 | 0.00 | 0.00 | 43 | 1016.2 |
| 20260507202500 | 18 | 86 | 6.4 | 16.1 | 0.00 | 0.00 | 0.00 | 43 | 1016.2 |
| 20260507202001 | 18 | 179 | 6.4 | 14.5 | 0.00 | 0.00 | 0.00 | 43 | 1016.1 |
| 20260507201502 | 18 | 122 | 6.4 | 9.7 | 0.00 | 0.00 | 0.00 | 44 | 1016.1 |
| 20260507201001 | 18 | 102 | 4.8 | 16.1 | 0.00 | 0.00 | 0.00 | 43 | 1016.2 |
| 20260507200002 | 18 | 117 | 3.2 | 16.1 | 0.00 | 0.00 | 0.00 | 43 | 1016.4 |
| 20260507195501 | 18 | 71 | 4.8 | 12.9 | 0.00 | 0.00 | 0.00 | 43 | 1016.4 |
| 20260507195003 | 18 | 127 | 6.4 | 16.1 | 0.00 | 0.00 | 0.00 | 43 | 1016.5 |
| 20260507194501 | 18 | 127 | 6.4 | 16.1 | 0.00 | 0.00 | 0.00 | 43 | 1016.4 |
| 20260507194100 | 18 | 131 | 4.8 | 14.5 | 0.00 | 0.00 | 0.00 | 43 | 1016.5 |
| 20260507193600 | 18 | 131 | 6.4 | 14.5 | 0.00 | 0.00 | 0.00 | 44 | 1016.5 |
| 20260507193059 | 18 | 144 | 6.4 | 12.9 | 0.00 | 0.00 | 0.00 | 45 | 1016.6 |
| 20260507192558 | 17 | 83 | 4.8 | 12.9 | 0.00 | 0.00 | 0.00 | 45 | 1016.7 |
| 20260507192101 | 17 | 117 | 4.8 | 9.7 | 0.00 | 0.00 | 0.00 | 45 | 1016.7 |
| 20260507191600 | 17 | 158 | 4.8 | 9.7 | 0.00 | 0.00 | 0.00 | 45 | 1016.9 |
| 20260507191059 | 17 | 152 | 6.4 | 14.5 | 0.00 | 0.00 | 0.00 | 45 | 1016.9 |
| 20260507190058 | 17 | 183 | 8.0 | 14.5 | 0.00 | 0.00 | 0.00 | 44 | 1017.1 |
| 20260507185556 | 17 | 110 | 6.4 | 14.5 | 0.00 | 0.00 | 0.00 | 44 | 1017.0 |
| 20260507185056 | 17 | 144 | 3.2 | 17.7 | 0.00 | 0.00 | 0.00 | 44 | 1017.1 |
| 20260507184604 | 17 | 77 | 6.4 | 17.7 | 0.00 | 0.00 | 0.00 | 44 | 1017.0 |
| 20260507184057 | 17 | 58 | 6.4 | 14.5 | 0.00 | 0.00 | 0.00 | 44 | 1017.1 |
| 20260507183555 | 17 | 117 | 6.4 | 16.1 | 0.00 | 0.00 | 0.00 | 44 | 1017.2 |
| 20260507183055 | 17 | 156 | 6.4 | 17.7 | 0.00 | 0.00 | 0.00 | 44 | 1017.2 |
| 20260507182556 | 17 | 122 | 8.0 | 20.9 | 0.00 | 0.00 | 0.00 | 44 | 1017.4 |
| 20260507182155 | 17 | 160 | 9.7 | 20.9 | 0.00 | 0.00 | 0.00 | 45 | 1017.3 |
| 20260507181603 | 18 | 117 | 6.4 | 17.7 | 0.00 | 0.00 | 0.00 | 45 | 1017.3 |
| 20260507181054 | 18 | 71 | 8.0 | 17.7 | 0.00 | 0.00 | 0.00 | 44 | 1017.5 |
| 20260507180055 | 17 | 62 | 4.8 | 12.9 | 0.00 | 0.00 | 0.00 | 46 | 1017.5 |
| 20260507175555 | 17 | 55 | 3.2 | 14.5 | 0.00 | 0.00 | 0.00 | 46 | 1017.5 |
| 20260507175054 | 17 | 110 | 4.8 | 16.1 | 0.00 | 0.00 | 0.00 | 46 | 1017.7 |
| 20260507174557 | 17 | 168 | 3.2 | 12.9 | 0.00 | 0.00 | 0.00 | 46 | 1017.8 |
| 20260507174052 | 17 | 111 | 4.8 | 14.5 | 0.00 | 0.00 | 0.00 | 46 | 1017.8 |
| 20260507173552 | 17 | 117 | 4.8 | 14.5 | 0.00 | 0.00 | 0.00 | 46 | 1017.9 |
| 20260507173053 | 17 | 103 | 4.8 | 9.7 | 0.00 | 0.00 | 0.00 | 46 | 1017.8 |
| 20260507172556 | 17 | 133 | 4.8 | 9.7 | 0.00 | 0.00 | 0.00 | 46 | 1017.9 |
| 20260507172051 | 17 | 111 | 3.2 | 16.1 | 0.00 | 0.00 | 0.00 | 46 | 1017.8 |
| 20260507171556 | 17 | 89 | 8.0 | 16.1 | 0.00 | 0.00 | 0.00 | 47 | 1018.0 |
| 20260507171051 | 16 | 133 | 3.2 | 12.9 | 0.00 | 0.00 | 0.00 | 49 | 1017.9 |
| 20260507170052 | 16 | 73 | 4.8 | 12.9 | 0.00 | 0.00 | 0.00 | 50 | 1018.0 |
| 20260507165549 | 16 | 67 | 6.4 | 12.9 | 0.00 | 0.00 | 0.00 | 50 | 1018.2 |
| 20260507165049 | 16 | 104 | 4.8 | 12.9 | 0.00 | 0.00 | 0.00 | 52 | 1018.2 |
| 20260507164549 | 16 | 117 | 4.8 | 14.5 | 0.00 | 0.00 | 0.00 | 52 | 1018.3 |
| 20260507164054 | 16 | 60 | 6.4 | 14.5 | 0.00 | 0.00 | 0.00 | 53 | 1018.3 |
| 20260507163548 | 16 | 105 | 4.8 | 11.3 | 0.00 | 0.00 | 0.00 | 52 | 1018.2 |
| 20260507163053 | 16 | 101 | 6.4 | 11.3 | 0.00 | 0.00 | 0.00 | 49 | 1018.1 |
| 20260507162549 | 16 | 133 | 3.2 | 14.5 | 0.00 | 0.00 | 0.00 | 49 | 1018.2 |
| 20260507162047 | 16 | 67 | 6.4 | 16.1 | 0.00 | 0.00 | 0.00 | 48 | 1018.3 |
| 20260507161548 | 16 | 152 | 6.4 | 17.7 | 0.00 | 0.00 | 0.00 | 48 | 1018.2 |
| 20260507161047 | 16 | 62 | 8.0 | 17.7 | 0.00 | 0.00 | 0.00 | 48 | 1018.2 |
| 20260507160047 | 16 | 66 | 4.8 | 12.9 | 0.00 | 0.00 | 0.00 | 48 | 1018.1 |
| 20260507155546 | 16 | 162 | 3.2 | 14.5 | 0.00 | 0.00 | 0.00 | 48 | 1018.0 |
| 20260507155046 | 16 | 51 | 4.8 | 17.7 | 0.00 | 0.00 | 0.00 | 48 | 1018.1 |
| 20260507154548 | 16 | 66 | 9.7 | 17.7 | 0.00 | 0.00 | 0.00 | 47 | 1017.9 |
| 20260507154046 | 16 | 67 | 6.4 | 17.7 | 0.00 | 0.00 | 0.00 | 48 | 1017.9 |
| 20260507153544 | 16 | 48 | 6.4 | 17.7 | 0.00 | 0.00 | 0.00 | 48 | 1017.8 |
| 20260507153050 | 16 | 84 | 11.3 | 17.7 | 0.00 | 0.00 | 0.00 | 48 | 1017.7 |
| 20260507152542 | 16 | 82 | 8.0 | 17.7 | 0.00 | 0.00 | 0.00 | 49 | 1017.8 |
| 20260507152041 | 15 | 45 | 3.2 | 14.5 | 0.00 | 0.00 | 0.00 | 51 | 1017.8 |
| 20260507151541 | 15 | 86 | 4.8 | 16.1 | 0.00 | 0.00 | 0.00 | 50 | 1017.8 |
| 20260507151040 | 15 | 62 | 11.3 | 22.5 | 0.00 | 0.00 | 0.00 | 50 | 1017.8 |
| 20260507150043 | 15 | 57 | 11.3 | 19.3 | 0.00 | 0.00 | 0.00 | 51 | 1017.8 |
| 20260507145540 | 15 | 67 | 9.7 | 17.7 | 0.00 | 0.00 | 0.00 | 51 | 1017.8 |
| 20260507145039 | 15 | 64 | 6.4 | 17.7 | 0.00 | 0.00 | 0.00 | 52 | 1017.9 |
| 20260507144539 | 15 | 62 | 4.8 | 19.3 | 0.00 | 0.00 | 0.00 | 52 | 1017.9 |
| 20260507144039 | 15 | 134 | 8.0 | 19.3 | 0.00 | 0.00 | 0.00 | 52 | 1017.9 |
| 20260507143538 | 15 | 54 | 6.4 | 20.9 | 0.00 | 0.00 | 0.00 | 53 | 1017.8 |
| 20260507143039 | 15 | 65 | 14.5 | 20.9 | 0.00 | 0.00 | 0.00 | 53 | 1017.9 |
| 20260507142537 | 15 | 62 | 11.3 | 19.3 | 0.00 | 0.00 | 0.00 | 53 | 1017.8 |
| 20260507142036 | 15 | 73 | 6.4 | 14.5 | 0.00 | 0.00 | 0.00 | 55 | 1017.7 |
| 20260507141536 | 14 | 79 | 3.2 | 16.1 | 0.00 | 0.00 | 0.00 | 55 | 1017.7 |
| 20260507141036 | 14 | 58 | 14.5 | 19.3 | 0.00 | 0.00 | 0.00 | 55 | 1017.6 |
| 20260507140039 | 14 | 60 | 9.7 | 19.3 | 0.00 | 0.00 | 0.00 | 56 | 1017.6 |
| 20260507135534 | 14 | 91 | 4.8 | 16.1 | 0.00 | 0.00 | 0.00 | 57 | 1017.7 |
| 20260507135034 | 14 | 58 | 8.0 | 17.7 | 0.00 | 0.00 | 0.00 | 57 | 1017.6 |
| 20260507134539 | 14 | 72 | 11.3 | 19.3 | 0.00 | 0.00 | 0.00 | 57 | 1017.6 |
| 20260507134035 | 14 | 65 | 8.0 | 20.9 | 0.00 | 0.00 | 0.00 | 57 | 1017.8 |
| 20260507133533 | 14 | 56 | 8.0 | 19.3 | 0.00 | 0.00 | 0.00 | 57 | 1017.7 |